Kankakee, IL

2:06 AM CST on December 16, 2019 (GMT -0600)
Greater Kankakee

Weather History for KIKK - October, 2019

Change the Weather History Date:

Saturday, October 12, 2019

  Actual Average Record
Temperature  
Mean Temperature 44 °F -  
Max Temperature 55 °F 66 °F 83 °F (1973)
Min Temperature 32 °F 41 °F 26 °F (1987)
Degree Days  
Heating Degree Days 22    
Moisture  
Dew Point 29 °F    
Average Humidity 59    
Maximum Humidity 85    
Minimum Humidity 33    
Precipitation  
Precipitation 0.00 in - - ()
Sea Level Pressure  
Sea Level Pressure 30.01 in    
Wind  
Wind Speed 12 mph (SW)    
Max Wind Speed 23 mph    
Max Gust Speed 31 mph    
Visibility 10 miles    
Events      
Averages and records for this station are not official NWS values.
T = Trace of Precipitation, MM = Missing Value Source: NWS Daily Summary

Daily Weather History Graph

Daily Weather History Graph

Search for Another Location

Airport or City:

Astronomy

Oct. 12, 2019 Rise Set
Actual Time 6:59 AM CDT 6:15 PM CDT
Civil Twilight 6:31 AM CDT 6:43 PM CDT
Nautical Twilight 5:59 AM CDT 7:15 PM CDT
Astronomical Twilight 5:27 AM CDT 7:47 PM CDT
Moon 6:12 PM CDT (10/12) 5:35 AM CDT (10/12)
Length of Visible Light 12h 11m
Length of Day
11h 16m
Waxing Gibbous, 99% of the Moon is Illuminated
Oct 12
Waxing Gibbous
Oct 13
Full
Oct 21
Last Quarter
Oct 27
New
Nov 4
First Quarter

Hourly Weather History & Observations

Time (CDT) Temp. Windchill Dew Point Humidity Pressure Visibility Wind Dir Wind Speed Gust Speed Precip Events Conditions
12:15 AM 39.2 °F 31.2 °F 29.3 °F 68% 30.10 in 10.0 mi West 13.8 mph 18.4 mph N/A   Mostly Cloudy
12:35 AM 37.4 °F 31.4 °F 29.3 °F 73% 30.10 in 10.0 mi West 8.1 mph - N/A   Scattered Clouds
12:55 AM 36.3 °F 31.6 °F 29.7 °F 77% 30.10 in 10.0 mi WSW 5.8 mph - N/A   Clear
1:15 AM 36.5 °F 31.8 °F 29.3 °F 75% 30.10 in 10.0 mi WSW 5.8 mph - N/A   Clear
1:35 AM 36.1 °F 30.6 °F 28.2 °F 73% 30.09 in 10.0 mi SW 6.9 mph - N/A   Clear
1:55 AM 35.6 °F 29.9 °F 28.0 °F 74% 30.09 in 10.0 mi SW 6.9 mph - N/A   Clear
2:15 AM 35.6 °F 29.2 °F 27.9 °F 73% 30.09 in 10.0 mi SW 8.1 mph - N/A   Clear
2:35 AM 34.7 °F 27.5 °F 28.0 °F 77% 30.09 in 10.0 mi SW 9.2 mph - N/A   Clear
2:55 AM 34.2 °F 26.8 °F 28.2 °F 79% 30.08 in 10.0 mi SW 9.2 mph - N/A   Clear
3:15 AM 34.0 °F 26.0 °F 28.2 °F 79% 30.08 in 10.0 mi SW 10.4 mph - N/A   Clear
3:35 AM 33.8 °F 26.4 °F 28.4 °F 81% 30.08 in 10.0 mi SW 9.2 mph - N/A   Clear
3:55 AM 33.3 °F 27.1 °F 28.2 °F 82% 30.08 in 10.0 mi SW 6.9 mph - N/A   Clear
4:15 AM 33.3 °F 26.4 °F 28.0 °F 81% 30.08 in 10.0 mi SW 8.1 mph - N/A   Clear
4:35 AM 33.4 °F 25.9 °F 27.9 °F 80% 30.08 in 10.0 mi SW 9.2 mph - N/A   Clear
4:55 AM 33.3 °F 25.7 °F 28.0 °F 81% 30.09 in 10.0 mi SW 9.2 mph - N/A   Clear
5:15 AM 33.1 °F 25.5 °F 28.2 °F 82% 30.08 in 10.0 mi SW 9.2 mph - N/A   Clear
5:35 AM 32.9 °F 25.3 °F 28.4 °F 84% 30.09 in 10.0 mi SW 9.2 mph - N/A   Clear
5:55 AM 32.9 °F 25.9 °F 28.4 °F 84% 30.09 in 10.0 mi SW 8.1 mph - N/A   Clear
6:15 AM 32.5 °F 25.5 °F 28.4 °F 85% 30.10 in 10.0 mi SSW 8.1 mph - N/A   Clear
6:35 AM 32.4 °F 24.6 °F 28.4 °F 85% 30.10 in 10.0 mi SW 9.2 mph - N/A   Clear
6:55 AM 32.5 °F 25.5 °F 28.2 °F 84% 30.10 in 10.0 mi SW 8.1 mph - N/A   Clear
7:15 AM 32.5 °F 25.5 °F 28.4 °F 85% 30.10 in 10.0 mi SW 8.1 mph - N/A   Clear
7:35 AM 32.9 °F 24.7 °F 28.4 °F 84% 30.10 in 10.0 mi SW 10.4 mph - N/A   Clear
7:55 AM 33.6 °F 26.2 °F 28.6 °F 82% 30.10 in 10.0 mi SW 9.2 mph - N/A   Clear
8:15 AM 34.9 °F 27.1 °F 28.8 °F 78% 30.10 in 10.0 mi SW 10.4 mph 16.1 mph N/A   Clear
8:35 AM 36.5 °F 29.2 °F 29.1 °F 75% 30.10 in 10.0 mi SW 10.4 mph - N/A   Clear
8:55 AM 37.9 °F 30.5 °F 29.8 °F 73% 30.10 in 10.0 mi SW 11.5 mph 17.3 mph N/A   Clear
9:15 AM 39.6 °F 31.7 °F 29.3 °F 67% 30.10 in 10.0 mi SW 13.8 mph 18.4 mph N/A   Clear
9:35 AM 40.6 °F 33.4 °F 29.5 °F 64% 30.10 in 10.0 mi SW 12.7 mph 21.9 mph N/A   Clear
9:55 AM 41.9 °F 35.0 °F 29.7 °F 62% 30.09 in 10.0 mi SW 12.7 mph 20.7 mph N/A   Clear
10:15 AM 43.3 °F 35.5 °F 29.3 °F 58% 30.09 in 10.0 mi SW 17.3 mph 24.2 mph N/A   Clear
10:35 AM 45.0 °F 37.6 °F 28.6 °F 53% 30.09 in 10.0 mi SW 17.3 mph 26.5 mph N/A   Clear
10:55 AM 45.5 °F 37.8 °F 29.8 °F 54% 30.09 in 10.0 mi SW 19.6 mph 25.3 mph N/A   Clear
11:15 AM 46.6 °F - 26.8 °F 46% 30.08 in 10.0 mi WSW 18.4 mph - N/A   Clear
11:35 AM 47.1 °F - 25.7 °F 43% 30.08 in 10.0 mi SW 21.9 mph 31.1 mph N/A   Clear
11:55 AM 47.7 °F - 25.7 °F 42% 30.07 in 10.0 mi SW 19.6 mph 28.8 mph N/A   Clear
12:15 PM 48.2 °F - 26.1 °F 42% 30.07 in 10.0 mi SW 16.1 mph 28.8 mph N/A   Clear
12:35 PM 49.3 °F - 27.0 °F 42% 30.05 in 10.0 mi SW 18.4 mph 26.5 mph N/A   Clear
12:55 PM 50.0 °F - 25.9 °F 39% 30.04 in 10.0 mi SW 20.7 mph 28.8 mph N/A   Clear
1:15 PM 51.8 °F - 26.8 °F 38% 30.02 in 10.0 mi SSW 17.3 mph 25.3 mph N/A   Clear
1:35 PM 52.0 °F - 27.0 °F 38% 30.01 in 10.0 mi WSW 18.4 mph 25.3 mph N/A   Clear
1:55 PM 52.3 °F - 25.7 °F 36% 30.00 in 10.0 mi SW 18.4 mph 27.6 mph N/A   Clear
2:15 PM 52.9 °F - 25.9 °F 35% 29.99 in 10.0 mi SW 19.6 mph 29.9 mph N/A   Clear
2:35 PM 54.0 °F - 26.6 °F 35% 29.98 in 10.0 mi SW 20.7 mph 27.6 mph N/A   Clear
2:55 PM 54.5 °F - 26.8 °F 34% 29.96 in 10.0 mi SSW 18.4 mph 24.2 mph N/A   Clear
3:15 PM 54.9 °F - 26.8 °F 34% 29.95 in 10.0 mi SW 17.3 mph 25.3 mph N/A   Clear
3:35 PM 54.9 °F - 26.1 °F 33% 29.93 in 10.0 mi SW 17.3 mph 28.8 mph N/A   Clear
3:55 PM 55.6 °F - 27.1 °F 34% 29.93 in 10.0 mi SSW 20.7 mph 31.1 mph N/A   Clear
4:15 PM 55.6 °F - 26.8 °F 33% 29.92 in 10.0 mi SSW 23.0 mph 31.1 mph N/A   Clear
4:35 PM 55.9 °F - 27.5 °F 34% 29.92 in 10.0 mi SSW 17.3 mph 27.6 mph N/A   Clear
5:15 PM 55.0 °F - 27.9 °F 35% 29.91 in 10.0 mi SSW 18.4 mph 25.3 mph N/A   Clear
5:35 PM 54.5 °F - 28.0 °F 36% 29.89 in 10.0 mi SSW 13.8 mph 24.2 mph N/A   Clear
5:55 PM 53.6 °F - 28.9 °F 39% 29.89 in 10.0 mi SSW 16.1 mph 24.2 mph N/A   Clear
6:15 PM 52.2 °F - 29.7 °F 42% 29.88 in 10.0 mi SSW 18.4 mph 24.2 mph N/A   Clear
6:35 PM 51.3 °F - 30.2 °F 44% 29.89 in 10.0 mi SSW 17.3 mph 24.2 mph N/A   Clear
6:55 PM 50.9 °F - 30.6 °F 46% 29.89 in 10.0 mi SSW 18.4 mph 24.2 mph N/A   Clear
7:15 PM 50.2 °F - 30.9 °F 48% 29.89 in 10.0 mi SSW 15.0 mph 26.5 mph N/A   Clear
7:35 PM 50.0 °F - 31.5 °F 49% 29.89 in 10.0 mi SSW 15.0 mph 29.9 mph N/A   Clear
7:55 PM 49.6 °F - 31.5 °F 50% 29.89 in 10.0 mi SSW 17.3 mph 24.2 mph N/A   Clear
8:15 PM 49.5 °F - 31.3 °F 50% 29.89 in 10.0 mi SSW 17.3 mph 26.5 mph N/A   Clear
8:35 PM 49.3 °F - 31.5 °F 50% 29.89 in 10.0 mi SSW 16.1 mph 26.5 mph N/A   Clear
8:55 PM 48.7 °F - 31.8 °F 52% 29.89 in 10.0 mi SSW 19.6 mph 25.3 mph N/A   Clear
9:15 PM 48.2 °F - 32.0 °F 54% 29.89 in 10.0 mi SSW 18.4 mph 26.5 mph N/A   Clear
9:35 PM 47.5 °F - 32.2 °F 55% 29.89 in 10.0 mi SSW 17.3 mph 21.9 mph N/A   Clear
9:55 PM 47.5 °F - 32.4 °F 56% 29.89 in 10.0 mi SSW 15.0 mph 23.0 mph N/A   Clear
10:15 PM 47.8 °F - 32.2 °F 55% 29.89 in 10.0 mi SSW 16.1 mph 25.3 mph N/A   Clear
10:35 PM 47.7 °F - 32.2 °F 55% 29.89 in 10.0 mi SSW 16.1 mph 23.0 mph N/A   Clear
10:55 PM 48.4 °F - 32.2 °F 54% 29.89 in 10.0 mi SSW 17.3 mph 24.2 mph N/A   Clear
11:15 PM 48.7 °F - 32.0 °F 52% 29.88 in 10.0 mi SSW 17.3 mph 24.2 mph N/A   Clear
11:35 PM 48.7 °F - 32.2 °F 53% 29.88 in 10.0 mi SSW 19.6 mph 28.8 mph N/A   Clear
11:55 PM 48.7 °F - 32.2 °F 53% 29.88 in 10.0 mi SSW 16.1 mph 26.5 mph N/A   Clear